IRIDIUM 112

Last updated on Tue Sep 22 2026 00:03:20 GMT+0000 (Coordinated Universal Time)

1 41925U 17003J 26264.34433174 .00000143 00000+0 44093-4 0 9992 2 41925 86.3948 48.0682 0002178 92.9885 267.1561 14.34218271507056
UTC large
Height (km)
Speed (km/s)
/
Latitude / Longitude
Inclination (degrees)
Orbital Period (minutes)
Azimuth
Elevation
Range (km)
Doppler Factor

Next 0 passes for location: London (51.5072 / 0.1276)

No passes found over London.
IRIDIUM 112